Year,Month,Day,Hour,Minute,Value (Times are PST for temperature in C)
2009,07,21,00,00,13.20
2009,07,21,00,01,13.20
2009,07,21,00,02,13.20
2009,07,21,00,03,13.20
2009,07,21,00,04,13.20
2009,07,21,00,05,13.20
2009,07,21,00,06,13.20
2009,07,21,00,07,13.20
2009,07,21,00,08,13.20
2009,07,21,00,09,13.20
2009,07,21,00,10,13.20
2009,07,21,00,11,13.20
2009,07,21,00,12,13.20
2009,07,21,00,18,13.10
2009,07,21,00,19,13.10
2009,07,21,00,20,13.10
2009,07,21,00,21,13.10
2009,07,21,00,22,13.10
2009,07,21,00,23,13.10
2009,07,21,00,24,13.10
2009,07,21,00,25,13.10
2009,07,21,00,26,13.10
2009,07,21,00,27,13.10
2009,07,21,00,28,13.10
2009,07,21,00,29,13.10
2009,07,21,00,30,13.10
2009,07,21,00,31,13.10
2009,07,21,00,32,13.10
2009,07,21,00,33,13.10
2009,07,21,00,34,13.10
2009,07,21,00,35,13.20
2009,07,21,00,36,13.20
2009,07,21,00,37,13.20
2009,07,21,00,38,13.20
2009,07,21,00,39,13.20
2009,07,21,00,40,13.20
2009,07,21,00,41,13.20
2009,07,21,00,42,13.20
2009,07,21,00,43,13.20
2009,07,21,00,44,13.30
2009,07,21,00,45,13.30
2009,07,21,00,46,13.30
2009,07,21,00,47,13.40
2009,07,21,00,48,13.40
2009,07,21,00,49,13.40
2009,07,21,00,50,13.40
2009,07,21,00,51,13.40
2009,07,21,00,52,13.40
2009,07,21,00,53,13.40
2009,07,21,00,54,13.50
2009,07,21,00,55,13.50
2009,07,21,00,56,13.50
2009,07,21,00,57,13.50
2009,07,21,00,58,13.50
2009,07,21,00,59,13.50
2009,07,21,01,00,13.40
2009,07,21,01,01,13.40
2009,07,21,01,02,13.40
2009,07,21,01,03,13.40
2009,07,21,01,04,13.40
2009,07,21,01,05,13.40
2009,07,21,01,06,13.50
2009,07,21,01,07,13.50
2009,07,21,01,08,13.50
2009,07,21,01,09,13.50
2009,07,21,01,10,13.50
2009,07,21,01,11,13.50
2009,07,21,01,12,13.50
2009,07,21,01,13,13.50
2009,07,21,01,14,13.40
2009,07,21,01,15,13.40
2009,07,21,01,16,13.30
2009,07,21,01,17,13.30
2009,07,21,01,18,13.30
2009,07,21,01,19,13.30
2009,07,21,01,20,13.30
2009,07,21,01,21,13.30
2009,07,21,01,22,13.30
2009,07,21,01,23,13.30
2009,07,21,01,24,13.30
2009,07,21,01,25,13.30
2009,07,21,01,26,13.30
2009,07,21,01,27,13.30
2009,07,21,01,28,13.40
2009,07,21,01,29,13.40
2009,07,21,01,30,13.40
2009,07,21,01,31,13.50
2009,07,21,01,32,13.50
2009,07,21,01,33,13.50
2009,07,21,01,34,13.60
2009,07,21,01,35,13.60
2009,07,21,01,36,13.60
2009,07,21,01,37,13.60
2009,07,21,01,38,13.60
2009,07,21,01,39,13.60
2009,07,21,01,40,13.50
2009,07,21,01,41,13.50
2009,07,21,01,42,13.40
2009,07,21,01,43,13.40
2009,07,21,01,44,13.40
2009,07,21,01,45,13.30
2009,07,21,01,46,13.40
2009,07,21,01,47,13.40
2009,07,21,01,48,13.50
2009,07,21,01,49,13.50
2009,07,21,01,50,13.50
2009,07,21,01,51,13.50
2009,07,21,01,52,13.50
2009,07,21,01,53,13.40
2009,07,21,01,54,13.40
2009,07,21,01,55,13.40
2009,07,21,01,56,13.50
2009,07,21,01,57,13.50
2009,07,21,01,58,13.50
2009,07,21,01,59,13.50
2009,07,21,02,00,13.50
2009,07,21,02,01,13.40
2009,07,21,02,02,13.50
2009,07,21,02,03,13.40
2009,07,21,02,04,13.40
2009,07,21,02,05,13.40
2009,07,21,02,06,13.40
2009,07,21,02,07,13.40
2009,07,21,02,08,13.40
2009,07,21,02,09,13.40
2009,07,21,02,10,13.40
2009,07,21,02,11,13.40
2009,07,21,02,12,13.40
2009,07,21,02,13,13.40
2009,07,21,02,14,13.40
2009,07,21,02,15,13.40
2009,07,21,02,16,13.40
2009,07,21,02,17,13.30
2009,07,21,02,18,13.30
2009,07,21,02,19,13.30
2009,07,21,02,20,13.30
2009,07,21,02,21,13.30
2009,07,21,02,22,13.30
2009,07,21,02,23,13.30
2009,07,21,02,24,13.30
2009,07,21,02,25,13.30
2009,07,21,02,26,13.30
2009,07,21,02,27,13.20
2009,07,21,02,28,13.20
2009,07,21,02,29,13.20
2009,07,21,02,30,13.20
2009,07,21,02,31,13.20
2009,07,21,02,32,13.20
2009,07,21,02,33,13.20
2009,07,21,02,34,13.30
2009,07,21,02,35,13.30
2009,07,21,02,36,13.30
2009,07,21,02,37,13.30
2009,07,21,02,38,13.30
2009,07,21,02,39,13.30
2009,07,21,02,40,13.30
2009,07,21,02,41,13.40
2009,07,21,02,42,13.40
2009,07,21,02,43,13.40
2009,07,21,02,44,13.40
2009,07,21,02,45,13.40
2009,07,21,02,46,13.40
2009,07,21,02,47,13.40
2009,07,21,02,48,13.40
2009,07,21,02,49,13.40
2009,07,21,02,50,13.40
2009,07,21,02,51,13.40
2009,07,21,02,52,13.40
2009,07,21,02,53,13.40
2009,07,21,02,54,13.40
2009,07,21,02,55,13.40
2009,07,21,02,56,13.40
2009,07,21,02,57,13.40
2009,07,21,02,58,13.40
2009,07,21,02,59,13.40
2009,07,21,03,00,13.40
2009,07,21,03,01,13.40
2009,07,21,03,02,13.40
2009,07,21,03,03,13.40
2009,07,21,03,04,13.40
2009,07,21,03,05,13.40
2009,07,21,03,06,13.40
2009,07,21,03,07,13.40
2009,07,21,03,08,13.30
2009,07,21,03,09,13.30
2009,07,21,03,10,13.30
2009,07,21,03,11,13.30
2009,07,21,03,12,13.30
2009,07,21,03,13,13.30
2009,07,21,03,14,13.30
2009,07,21,03,15,13.30
2009,07,21,03,16,13.20
2009,07,21,03,17,13.20
2009,07,21,03,18,13.20
2009,07,21,03,19,13.20
2009,07,21,03,20,13.20
2009,07,21,03,21,13.20
2009,07,21,03,22,13.20
2009,07,21,03,23,13.20
2009,07,21,03,24,13.20
2009,07,21,03,25,13.20
2009,07,21,03,26,13.20
2009,07,21,03,27,13.20
2009,07,21,03,28,13.20
2009,07,21,03,29,13.20
2009,07,21,03,30,13.20
2009,07,21,03,31,13.20
2009,07,21,03,32,13.20
2009,07,21,03,33,13.20
2009,07,21,03,34,13.20
2009,07,21,03,35,13.20
2009,07,21,03,36,13.20
2009,07,21,03,37,13.20
2009,07,21,03,38,13.20
2009,07,21,03,39,13.20
2009,07,21,03,40,13.20
2009,07,21,03,41,13.10
2009,07,21,03,42,13.10
2009,07,21,03,43,13.10
2009,07,21,03,44,13.10
2009,07,21,03,45,13.00
2009,07,21,03,46,13.00
2009,07,21,03,47,12.90
2009,07,21,03,48,12.90
2009,07,21,03,49,12.90
2009,07,21,03,50,12.90
2009,07,21,03,51,12.80
2009,07,21,03,52,12.80
2009,07,21,03,53,12.80
2009,07,21,03,54,12.80
2009,07,21,03,55,12.80
2009,07,21,03,56,12.80
2009,07,21,03,57,12.90
2009,07,21,03,58,12.90
2009,07,21,03,59,12.90
2009,07,21,04,00,12.90
2009,07,21,04,01,13.00
2009,07,21,04,02,13.00
2009,07,21,04,03,13.00
2009,07,21,04,04,13.00
2009,07,21,04,05,13.00
2009,07,21,04,06,13.00
2009,07,21,04,07,13.00
2009,07,21,04,08,12.90
2009,07,21,04,09,12.90
2009,07,21,04,10,12.90
2009,07,21,04,11,12.80
2009,07,21,04,12,12.80
2009,07,21,04,13,12.80
2009,07,21,04,14,12.80
2009,07,21,04,15,12.80
2009,07,21,04,16,12.80
2009,07,21,04,17,12.80
2009,07,21,04,18,12.80
2009,07,21,04,19,12.80
2009,07,21,04,20,12.80
2009,07,21,04,21,12.80
2009,07,21,04,22,12.80
2009,07,21,04,23,12.80
2009,07,21,04,24,12.80
2009,07,21,04,25,12.80
2009,07,21,04,26,12.90
2009,07,21,04,27,12.90
2009,07,21,04,28,12.90
2009,07,21,04,29,13.00
2009,07,21,04,30,13.00
2009,07,21,04,31,12.90
2009,07,21,04,32,12.90
2009,07,21,04,33,12.90
2009,07,21,04,34,12.80
2009,07,21,04,35,12.80
2009,07,21,04,36,12.70
2009,07,21,04,37,12.60
2009,07,21,04,38,12.60
2009,07,21,04,39,12.60
2009,07,21,04,40,12.50
2009,07,21,04,41,12.50
2009,07,21,04,42,12.40
2009,07,21,04,43,12.40
2009,07,21,04,44,12.40
2009,07,21,04,45,12.30
2009,07,21,04,46,12.30
2009,07,21,04,47,12.30
2009,07,21,04,48,12.20
2009,07,21,04,49,12.20
2009,07,21,04,50,12.20
2009,07,21,04,51,12.20
2009,07,21,04,52,12.10
2009,07,21,04,53,12.10
2009,07,21,04,54,12.10
2009,07,21,04,55,12.10
2009,07,21,04,56,12.00
2009,07,21,04,57,12.00
2009,07,21,04,58,12.00
2009,07,21,04,59,12.00
2009,07,21,05,00,12.00
2009,07,21,05,01,12.00
2009,07,21,05,02,12.00
2009,07,21,05,03,12.10
2009,07,21,05,04,12.20
2009,07,21,05,05,12.20
2009,07,21,05,06,12.20
2009,07,21,05,07,12.20
2009,07,21,05,08,12.20
2009,07,21,05,09,12.20
2009,07,21,05,10,12.10
2009,07,21,05,11,12.20
2009,07,21,05,12,12.20
2009,07,21,05,13,12.20
2009,07,21,05,14,12.20
2009,07,21,05,15,12.20
2009,07,21,05,16,12.20
2009,07,21,05,17,12.20
2009,07,21,05,18,12.20
2009,07,21,05,19,12.20
2009,07,21,05,20,12.30
2009,07,21,05,21,12.30
2009,07,21,05,22,12.30
2009,07,21,05,23,12.30
2009,07,21,05,24,12.30
2009,07,21,05,25,12.30
2009,07,21,05,26,12.30
2009,07,21,05,27,12.30
2009,07,21,05,28,12.30
2009,07,21,05,29,12.20
2009,07,21,05,30,12.20
2009,07,21,05,31,12.20
2009,07,21,05,32,12.20
2009,07,21,05,33,12.10
2009,07,21,05,34,12.10
2009,07,21,05,35,12.10
2009,07,21,05,36,12.10
2009,07,21,05,37,12.10
2009,07,21,05,38,12.10
2009,07,21,05,39,12.10
2009,07,21,05,40,12.10
2009,07,21,05,41,12.10
2009,07,21,05,42,12.10
2009,07,21,05,43,12.10
2009,07,21,05,44,12.10
2009,07,21,05,45,12.10
2009,07,21,05,46,12.10
2009,07,21,05,47,12.10
2009,07,21,05,48,12.10
2009,07,21,05,49,12.10
2009,07,21,05,50,12.10
2009,07,21,05,51,12.10
2009,07,21,05,52,12.10
2009,07,21,05,53,12.10
2009,07,21,05,54,12.10
2009,07,21,05,55,12.00
2009,07,21,05,56,12.00
2009,07,21,05,57,12.00
2009,07,21,05,58,12.00
2009,07,21,05,59,11.90
2009,07,21,06,00,11.90
2009,07,21,06,01,11.90
2009,07,21,06,02,11.90
2009,07,21,06,03,11.90
2009,07,21,06,04,11.90
2009,07,21,06,05,11.90
2009,07,21,06,06,11.90
2009,07,21,06,07,11.90
2009,07,21,06,08,11.80
2009,07,21,06,09,11.80
2009,07,21,06,10,11.80
2009,07,21,06,11,11.80
2009,07,21,06,12,11.70
2009,07,21,06,13,11.70
2009,07,21,06,14,11.70
2009,07,21,06,15,11.70
2009,07,21,06,16,11.70
2009,07,21,06,17,11.60
2009,07,21,06,18,11.60
2009,07,21,06,19,11.60
2009,07,21,06,20,11.60
2009,07,21,06,21,11.60
2009,07,21,06,22,11.60
2009,07,21,06,23,11.60
2009,07,21,06,24,11.70
2009,07,21,06,25,11.70
2009,07,21,06,26,11.70
2009,07,21,06,27,11.70
2009,07,21,06,28,11.70
2009,07,21,06,29,11.70
2009,07,21,06,30,11.80
2009,07,21,06,31,11.80
2009,07,21,06,32,11.80
2009,07,21,06,33,11.80
2009,07,21,06,34,11.80
2009,07,21,06,35,11.80
2009,07,21,06,36,11.80
2009,07,21,06,37,11.90
2009,07,21,06,38,11.90
2009,07,21,06,39,12.00
2009,07,21,06,40,12.00
2009,07,21,06,41,12.10
2009,07,21,06,42,12.10
2009,07,21,06,43,12.20
2009,07,21,06,44,12.20
2009,07,21,06,45,12.30
2009,07,21,06,46,12.30
2009,07,21,06,47,12.30
2009,07,21,06,48,12.40
2009,07,21,06,49,12.50
2009,07,21,06,50,12.50
2009,07,21,06,51,12.60
2009,07,21,06,52,12.60
2009,07,21,06,53,12.70
2009,07,21,06,54,12.70
2009,07,21,06,55,12.80
2009,07,21,06,56,12.90
2009,07,21,06,57,13.00
2009,07,21,06,58,13.10
2009,07,21,06,59,13.10
2009,07,21,07,00,13.20
2009,07,21,07,01,13.30
2009,07,21,07,02,13.40
2009,07,21,07,03,13.40
2009,07,21,07,04,13.50
2009,07,21,07,05,13.50
2009,07,21,07,06,13.60
2009,07,21,07,07,13.60
2009,07,21,07,08,13.70
2009,07,21,07,09,13.70
2009,07,21,07,10,13.80
2009,07,21,07,11,13.80
2009,07,21,07,12,13.90
2009,07,21,07,13,13.90
2009,07,21,07,14,13.90
2009,07,21,07,15,13.90
2009,07,21,07,16,13.90
2009,07,21,07,17,13.90
2009,07,21,07,18,13.90
2009,07,21,07,19,13.90
2009,07,21,07,20,14.00
2009,07,21,07,21,14.00
2009,07,21,07,22,14.00
2009,07,21,07,23,14.10
2009,07,21,07,24,14.10
2009,07,21,07,25,14.20
2009,07,21,07,26,14.30
2009,07,21,07,27,14.40
2009,07,21,07,28,14.50
2009,07,21,07,29,14.60
2009,07,21,07,30,14.70
2009,07,21,07,31,14.80
2009,07,21,07,32,14.90
2009,07,21,07,33,15.00
2009,07,21,07,34,15.00
2009,07,21,07,35,15.00
2009,07,21,07,36,15.00
2009,07,21,07,37,15.10
2009,07,21,07,38,15.20
2009,07,21,07,39,15.30
2009,07,21,07,40,15.30
2009,07,21,07,41,15.40
2009,07,21,07,42,15.40
2009,07,21,07,43,15.40
2009,07,21,07,44,15.50
2009,07,21,07,45,15.50
2009,07,21,07,46,15.60
2009,07,21,07,47,15.60
2009,07,21,07,48,15.70
2009,07,21,07,49,15.70
2009,07,21,07,50,15.70
2009,07,21,07,51,15.80
2009,07,21,07,52,15.80
2009,07,21,07,53,15.90
2009,07,21,07,54,15.90
2009,07,21,07,55,15.90
2009,07,21,07,56,16.00
2009,07,21,07,57,16.00
2009,07,21,07,58,16.00
2009,07,21,07,59,16.10
2009,07,21,08,00,16.10
2009,07,21,08,01,16.10
2009,07,21,08,02,16.20
2009,07,21,08,03,16.20
2009,07,21,08,04,16.20
2009,07,21,08,05,16.20
2009,07,21,08,06,16.30
2009,07,21,08,07,16.30
2009,07,21,08,08,16.30
2009,07,21,08,09,16.30
2009,07,21,08,10,16.30
2009,07,21,08,11,16.30
2009,07,21,08,12,16.40
2009,07,21,08,13,16.40
2009,07,21,08,14,16.40
2009,07,21,08,15,16.50
2009,07,21,08,16,16.50
2009,07,21,08,17,16.60
2009,07,21,08,18,16.60
2009,07,21,08,19,16.70
2009,07,21,08,20,16.80
2009,07,21,08,21,16.80
2009,07,21,08,22,16.90
2009,07,21,08,23,16.90
2009,07,21,08,24,17.00
2009,07,21,08,25,17.10
2009,07,21,08,26,17.10
2009,07,21,08,27,17.20
2009,07,21,08,28,17.20
2009,07,21,08,29,17.30
2009,07,21,08,30,17.30
2009,07,21,08,31,17.40
2009,07,21,08,32,17.40
2009,07,21,08,33,17.50
2009,07,21,08,34,17.60
2009,07,21,08,35,17.70
2009,07,21,08,36,17.80
2009,07,21,08,37,17.80
2009,07,21,08,38,17.90
2009,07,21,08,39,18.00
2009,07,21,08,40,18.10
2009,07,21,08,41,18.20
2009,07,21,08,42,18.30
2009,07,21,08,43,18.40
2009,07,21,08,44,18.50
2009,07,21,08,45,18.50
2009,07,21,08,46,18.60
2009,07,21,08,47,18.70
2009,07,21,08,48,18.80
2009,07,21,08,49,18.80
2009,07,21,08,50,18.80
2009,07,21,08,51,18.80
2009,07,21,08,52,18.90
2009,07,21,08,53,18.90
2009,07,21,08,54,18.90
2009,07,21,08,55,18.90
2009,07,21,08,56,19.00
2009,07,21,08,57,19.10
2009,07,21,08,58,19.10
2009,07,21,08,59,19.10
2009,07,21,09,00,19.00
2009,07,21,09,01,18.90
2009,07,21,09,02,18.80
2009,07,21,09,03,18.70
2009,07,21,09,04,18.60
2009,07,21,09,05,18.50
2009,07,21,09,06,18.30
2009,07,21,09,07,18.20
2009,07,21,09,08,18.20
2009,07,21,09,09,18.10
2009,07,21,09,10,18.10
2009,07,21,09,11,18.00
2009,07,21,09,12,17.90
2009,07,21,09,13,17.90
2009,07,21,09,14,17.90
2009,07,21,09,15,17.90
2009,07,21,09,16,17.90
2009,07,21,09,17,17.90
2009,07,21,09,18,17.90
2009,07,21,09,19,17.90
2009,07,21,09,20,17.90
2009,07,21,09,21,17.90
2009,07,21,09,22,18.00
2009,07,21,09,23,18.10
2009,07,21,09,24,18.20
2009,07,21,09,25,18.20
2009,07,21,09,26,18.30
2009,07,21,09,27,18.40
2009,07,21,09,28,18.50
2009,07,21,09,29,18.50
2009,07,21,09,30,18.60
2009,07,21,09,31,18.70
2009,07,21,09,32,18.80
2009,07,21,09,33,19.00
2009,07,21,09,34,19.10
2009,07,21,09,35,19.20
2009,07,21,09,36,19.30
2009,07,21,09,37,19.30
2009,07,21,09,38,19.30
2009,07,21,09,39,19.40
2009,07,21,09,40,19.40
2009,07,21,09,41,19.40
2009,07,21,09,42,19.40
2009,07,21,09,43,19.40
2009,07,21,09,44,19.40
2009,07,21,09,45,19.40
2009,07,21,09,46,19.40
2009,07,21,09,47,19.30
2009,07,21,09,48,19.20
2009,07,21,09,49,19.20
2009,07,21,09,50,19.20
2009,07,21,09,51,19.20
2009,07,21,09,52,19.20
2009,07,21,09,53,19.20
2009,07,21,09,54,19.20
2009,07,21,09,55,19.20
2009,07,21,09,56,19.30
2009,07,21,09,57,19.30
2009,07,21,09,58,19.40
2009,07,21,09,59,19.40
2009,07,21,10,00,19.50
2009,07,21,10,01,19.60
2009,07,21,10,02,19.60
2009,07,21,10,03,19.70
2009,07,21,10,04,19.80
2009,07,21,10,05,19.90
2009,07,21,10,06,20.10
2009,07,21,10,07,20.20
2009,07,21,10,08,20.30
2009,07,21,10,09,20.40
2009,07,21,10,10,20.50
2009,07,21,10,11,20.60
2009,07,21,10,12,20.70
2009,07,21,10,13,20.80
2009,07,21,10,14,20.80
2009,07,21,10,15,20.80
2009,07,21,10,16,20.80
2009,07,21,10,17,20.80
2009,07,21,10,18,20.80
2009,07,21,10,19,20.80
2009,07,21,10,20,20.90
2009,07,21,10,21,21.00
2009,07,21,10,22,21.10
2009,07,21,10,23,21.20
2009,07,21,10,24,21.30
2009,07,21,10,25,21.40
2009,07,21,10,26,21.50
2009,07,21,10,27,21.50
2009,07,21,10,28,21.60
2009,07,21,10,29,21.60
2009,07,21,10,30,21.60
2009,07,21,10,31,21.50
2009,07,21,10,32,21.50
2009,07,21,10,33,21.30
2009,07,21,10,34,21.30
2009,07,21,10,35,21.10
2009,07,21,10,36,21.00
2009,07,21,10,37,20.90
2009,07,21,10,38,20.80
2009,07,21,10,39,20.80
2009,07,21,10,40,20.70
2009,07,21,10,41,20.60
2009,07,21,10,42,20.60
2009,07,21,10,43,20.50
2009,07,21,10,44,20.50
2009,07,21,10,45,20.40
2009,07,21,10,46,20.20
2009,07,21,10,47,20.00
2009,07,21,10,48,19.90
2009,07,21,10,49,19.80
2009,07,21,10,50,19.80
2009,07,21,10,51,19.70
2009,07,21,10,52,19.70
2009,07,21,10,53,19.70
2009,07,21,10,54,19.70
2009,07,21,10,55,19.60
2009,07,21,10,56,19.60
2009,07,21,10,57,19.60
2009,07,21,10,58,19.60
2009,07,21,10,59,19.50
2009,07,21,11,00,19.50
2009,07,21,11,01,19.50
2009,07,21,11,02,19.50
2009,07,21,11,03,19.50
2009,07,21,11,04,19.50
2009,07,21,11,05,19.60
2009,07,21,11,06,19.60
2009,07,21,11,07,19.60
2009,07,21,11,08,19.70
2009,07,21,11,09,19.70
2009,07,21,11,10,19.70
2009,07,21,11,11,19.70
2009,07,21,11,12,19.70
2009,07,21,11,13,19.70
2009,07,21,11,14,19.70
2009,07,21,11,15,19.80
2009,07,21,11,16,19.80
2009,07,21,11,17,19.90
2009,07,21,11,18,20.00
2009,07,21,11,19,20.10
2009,07,21,11,20,20.20
2009,07,21,11,21,20.20
2009,07,21,11,22,20.30
2009,07,21,11,23,20.30
2009,07,21,11,24,20.30
2009,07,21,11,25,20.30
2009,07,21,11,26,20.30
2009,07,21,11,27,20.30
2009,07,21,11,28,20.40
2009,07,21,11,29,20.50
2009,07,21,11,30,20.50
2009,07,21,11,31,20.60
2009,07,21,11,32,20.60
2009,07,21,11,33,20.60
2009,07,21,11,34,20.60
2009,07,21,11,35,20.70
2009,07,21,11,36,20.70
2009,07,21,11,37,20.70
2009,07,21,11,38,20.80
2009,07,21,11,39,20.80
2009,07,21,11,40,20.90
2009,07,21,11,41,21.00
2009,07,21,11,42,21.10
2009,07,21,11,43,21.10
2009,07,21,11,44,21.10
2009,07,21,11,45,21.10
2009,07,21,11,46,21.10
2009,07,21,11,47,21.10
2009,07,21,11,48,21.20
2009,07,21,11,49,21.20
2009,07,21,11,50,21.20
2009,07,21,11,51,21.20
2009,07,21,11,52,21.30
2009,07,21,11,53,21.40
2009,07,21,11,54,21.50
2009,07,21,11,55,21.60
2009,07,21,11,56,21.70
2009,07,21,11,57,21.80
2009,07,21,11,58,21.90
2009,07,21,11,59,22.00
2009,07,21,12,00,22.00
2009,07,21,12,01,22.10
2009,07,21,12,02,22.10
2009,07,21,12,03,22.10
2009,07,21,12,04,22.00
2009,07,21,12,05,21.90
2009,07,21,12,06,21.90
2009,07,21,12,07,21.80
2009,07,21,12,08,21.80
2009,07,21,12,09,21.70
2009,07,21,12,10,21.70
2009,07,21,12,11,21.70
2009,07,21,12,12,21.80
2009,07,21,12,13,21.80
2009,07,21,12,14,21.80
2009,07,21,12,15,21.80
2009,07,21,12,16,21.70
2009,07,21,12,17,21.70
2009,07,21,12,18,21.70
2009,07,21,12,19,21.90
2009,07,21,12,20,22.10
2009,07,21,12,21,22.30
2009,07,21,12,22,22.50
2009,07,21,12,23,22.70
2009,07,21,12,24,22.90
2009,07,21,12,25,23.00
2009,07,21,12,26,23.20
2009,07,21,12,27,23.30
2009,07,21,12,28,23.40
2009,07,21,12,29,23.60
2009,07,21,12,30,23.60
2009,07,21,12,31,23.70
2009,07,21,12,32,23.70
2009,07,21,12,33,23.70
2009,07,21,12,34,23.70
2009,07,21,12,35,23.70
2009,07,21,12,36,23.70
2009,07,21,12,37,23.60
2009,07,21,12,38,23.60
2009,07,21,12,39,23.60
2009,07,21,12,40,23.60
2009,07,21,12,41,23.60
2009,07,21,12,42,23.60
2009,07,21,12,43,23.60
2009,07,21,12,44,23.50
2009,07,21,12,45,23.40
2009,07,21,12,46,23.30
2009,07,21,12,47,23.20
2009,07,21,12,48,22.90
2009,07,21,12,49,22.60
2009,07,21,12,50,22.30
2009,07,21,12,51,22.10
2009,07,21,12,52,21.80
2009,07,21,12,53,21.70
2009,07,21,12,54,21.50
2009,07,21,12,55,21.30
2009,07,21,12,56,21.20
2009,07,21,12,57,21.00
2009,07,21,12,58,21.00
2009,07,21,12,59,20.90
2009,07,21,13,00,20.80
2009,07,21,13,01,20.70
2009,07,21,13,02,20.60
2009,07,21,13,03,20.50
2009,07,21,13,04,20.40
2009,07,21,13,05,20.20
2009,07,21,13,06,20.00
2009,07,21,13,07,19.80
2009,07,21,13,08,19.70
2009,07,21,13,09,19.50
2009,07,21,13,10,19.30
2009,07,21,13,11,19.10
2009,07,21,13,12,18.90
2009,07,21,13,13,18.70
2009,07,21,13,14,18.50
2009,07,21,13,15,18.30
2009,07,21,13,16,18.10
2009,07,21,13,17,18.00
2009,07,21,13,18,17.90
2009,07,21,13,19,17.80
2009,07,21,13,20,17.60
2009,07,21,13,21,17.60
2009,07,21,13,22,17.60
2009,07,21,13,23,17.60
2009,07,21,13,24,17.60
2009,07,21,13,25,17.50
2009,07,21,13,26,17.50
2009,07,21,13,27,17.40
2009,07,21,13,28,17.40
2009,07,21,13,29,17.50
2009,07,21,13,30,17.60
2009,07,21,13,31,17.50
2009,07,21,13,32,17.50
2009,07,21,13,33,17.40
2009,07,21,13,34,17.40
2009,07,21,13,35,17.30
2009,07,21,13,36,17.30
2009,07,21,13,37,17.30
2009,07,21,13,38,17.30
2009,07,21,13,39,17.30
2009,07,21,13,40,17.30
2009,07,21,13,41,17.30
2009,07,21,13,42,17.30
2009,07,21,13,43,17.20
2009,07,21,13,44,17.20
2009,07,21,13,45,17.10
2009,07,21,13,46,17.10
2009,07,21,13,47,17.10
2009,07,21,13,48,17.20
2009,07,21,13,49,17.40
2009,07,21,13,50,17.40
2009,07,21,13,51,17.40
2009,07,21,13,52,17.40
2009,07,21,13,53,17.40
2009,07,21,13,54,17.40
2009,07,21,13,55,17.40
2009,07,21,13,56,17.30
2009,07,21,13,57,17.30
2009,07,21,13,58,17.30
2009,07,21,13,59,17.30
2009,07,21,14,00,17.30
2009,07,21,14,01,17.40
2009,07,21,14,02,17.50
2009,07,21,14,03,17.50
2009,07,21,14,04,17.50
2009,07,21,14,05,17.60
2009,07,21,14,06,17.60
2009,07,21,14,07,17.50
2009,07,21,14,08,17.50
2009,07,21,14,09,17.50
2009,07,21,14,10,17.50
2009,07,21,14,11,17.50
2009,07,21,14,12,17.50
2009,07,21,14,13,17.40
2009,07,21,14,14,17.30
2009,07,21,14,15,17.30
2009,07,21,14,16,17.30
2009,07,21,14,17,17.40
2009,07,21,14,18,17.50
2009,07,21,14,19,17.60
2009,07,21,14,20,17.70
2009,07,21,14,21,17.80
2009,07,21,14,22,18.00
2009,07,21,14,23,18.10
2009,07,21,14,24,18.30
2009,07,21,14,25,18.40
2009,07,21,14,26,18.50
2009,07,21,14,27,18.70
2009,07,21,14,28,18.80
2009,07,21,14,29,18.90
2009,07,21,14,30,19.00
2009,07,21,14,31,19.10
2009,07,21,14,32,19.20
2009,07,21,14,33,19.20
2009,07,21,14,34,19.30
2009,07,21,14,35,19.30
2009,07,21,14,36,19.40
2009,07,21,14,37,19.50
2009,07,21,14,38,19.60
2009,07,21,14,39,19.70
2009,07,21,14,40,19.70
2009,07,21,14,41,19.70
2009,07,21,14,42,19.70
2009,07,21,14,43,19.70
2009,07,21,14,44,19.60
2009,07,21,14,45,19.70
2009,07,21,14,46,19.70
2009,07,21,14,47,19.80
2009,07,21,14,48,19.80
2009,07,21,14,49,19.90
2009,07,21,14,50,19.90
2009,07,21,14,51,19.90
2009,07,21,14,52,19.90
2009,07,21,14,53,19.90
2009,07,21,14,54,19.80
2009,07,21,14,55,19.60
2009,07,21,14,56,19.50
2009,07,21,14,57,19.50
2009,07,21,14,58,19.60
2009,07,21,14,59,19.70
2009,07,21,15,00,19.90
2009,07,21,15,01,20.00
2009,07,21,15,02,20.20
2009,07,21,15,03,20.30
2009,07,21,15,04,20.20
2009,07,21,15,05,20.20
2009,07,21,15,06,20.20
2009,07,21,15,07,20.20
2009,07,21,15,08,20.10
2009,07,21,15,09,20.00
2009,07,21,15,10,20.00
2009,07,21,15,11,20.00
2009,07,21,15,12,19.90
2009,07,21,15,13,19.90
2009,07,21,15,14,20.00
2009,07,21,15,15,20.10
2009,07,21,15,16,20.10
2009,07,21,15,17,20.20
2009,07,21,15,18,20.30
2009,07,21,15,19,20.40
2009,07,21,15,20,20.50
2009,07,21,15,21,20.60
2009,07,21,15,22,20.60
2009,07,21,15,23,20.70
2009,07,21,15,24,20.70
2009,07,21,15,25,20.70
2009,07,21,15,26,20.60
2009,07,21,15,27,20.60
2009,07,21,15,28,20.70
2009,07,21,15,29,20.70
2009,07,21,15,30,20.80
2009,07,21,15,31,20.70
2009,07,21,15,32,20.70
2009,07,21,15,33,20.70
2009,07,21,15,34,20.70
2009,07,21,15,35,20.70
2009,07,21,15,36,20.70
2009,07,21,15,37,20.70
2009,07,21,15,38,20.70
2009,07,21,15,39,20.80
2009,07,21,15,40,20.80
2009,07,21,15,41,20.70
2009,07,21,15,42,20.80
2009,07,21,15,43,20.80
2009,07,21,15,44,20.80
2009,07,21,15,45,20.80
2009,07,21,15,46,20.70
2009,07,21,15,47,20.80
2009,07,21,15,48,20.80
2009,07,21,15,49,20.70
2009,07,21,15,50,20.70
2009,07,21,15,51,20.60
2009,07,21,15,52,20.40
2009,07,21,15,53,20.40
2009,07,21,15,54,20.40
2009,07,21,15,55,20.30
2009,07,21,15,56,20.30
2009,07,21,15,57,20.10
2009,07,21,15,58,20.00
2009,07,21,15,59,19.90
2009,07,21,16,00,19.80
2009,07,21,16,01,19.70
2009,07,21,16,02,19.70
2009,07,21,16,03,19.70
2009,07,21,16,04,19.70
2009,07,21,16,05,19.70
2009,07,21,16,06,19.70
2009,07,21,16,07,19.70
2009,07,21,16,08,19.70
2009,07,21,16,09,19.60
2009,07,21,16,10,19.50
2009,07,21,16,11,19.40
2009,07,21,16,12,19.50
2009,07,21,16,13,19.50
2009,07,21,16,14,19.60
2009,07,21,16,15,19.60
2009,07,21,16,16,19.70
2009,07,21,16,17,19.80
2009,07,21,16,18,19.80
2009,07,21,16,19,19.90
2009,07,21,16,20,19.90
2009,07,21,16,21,20.00
2009,07,21,16,22,20.00
2009,07,21,16,23,20.10
2009,07,21,16,24,20.20
2009,07,21,16,25,20.20
2009,07,21,16,26,20.20
2009,07,21,16,27,20.20
2009,07,21,16,28,20.20
2009,07,21,16,29,20.20
2009,07,21,16,30,20.10
2009,07,21,16,31,20.00
2009,07,21,16,32,19.80
2009,07,21,16,33,19.70
2009,07,21,16,34,19.60
2009,07,21,16,35,19.60
2009,07,21,16,36,19.60
2009,07,21,16,37,19.60
2009,07,21,16,38,19.70
2009,07,21,16,39,19.60
2009,07,21,16,40,19.60
2009,07,21,16,41,19.60
2009,07,21,16,42,19.60
2009,07,21,16,43,19.60
2009,07,21,16,44,19.60
2009,07,21,16,45,19.60
2009,07,21,16,46,19.70
2009,07,21,16,47,19.80
2009,07,21,16,48,19.90
2009,07,21,16,49,19.90
2009,07,21,16,50,20.00
2009,07,21,16,51,20.10
2009,07,21,16,52,20.00
2009,07,21,16,53,20.10
2009,07,21,16,54,20.10
2009,07,21,16,55,20.00
2009,07,21,16,56,20.00
2009,07,21,16,57,20.00
2009,07,21,16,58,20.10
2009,07,21,16,59,20.20
2009,07,21,17,00,20.30
2009,07,21,17,01,20.30
2009,07,21,17,02,20.30
2009,07,21,17,03,20.30
2009,07,21,17,04,20.20
2009,07,21,17,05,20.20
2009,07,21,17,06,20.20
2009,07,21,17,07,20.20
2009,07,21,17,08,20.30
2009,07,21,17,09,20.30
2009,07,21,17,10,20.40
2009,07,21,17,11,20.50
2009,07,21,17,12,20.50
2009,07,21,17,13,20.60
2009,07,21,17,14,20.60
2009,07,21,17,15,20.60
2009,07,21,17,16,20.60
2009,07,21,17,17,20.50
2009,07,21,17,18,20.40
2009,07,21,17,19,20.40
2009,07,21,17,20,20.30
2009,07,21,17,21,20.30
2009,07,21,17,22,20.30
2009,07,21,17,23,20.40
2009,07,21,17,24,20.50